Hourly Data Report for January 14, 2021

STE-ANNE-DE-BELLEVUE 1
QUEBEC
Current Station Operator: ECCC - MSC

45°25'38.000" N
73°55'45.000" W
39.00 m
702FHL8
71377
WVQ

Download Data

Hourly Data (January 2021)
Hourly Data Report for January 14, 2021
TIME
LST
Temp Definition
°C
Dew Point Definition
°C
Rel Hum Definition
%
Precip. Amount Definition
mm

Wind Dir Definition
10's deg

Wind Spd Definition
km/h
Visibility Definition
km
Stn Press Definition
kPa
Hmdx Definition


Wind Chill Definition


Weather Definition


00:00 0.8 -1.7 84 0.0 21 4   100.30     LegendNANA
01:00 0.8 -1.3 86 0.0 21 4   100.30     LegendNANA
02:00 0.3 -1.1 90 0.0 15 4   100.33     LegendNANA
03:00 0.5 -1.6 86 0.0 17 3   100.34     LegendNANA
04:00 -0.7 -1.9 92 0.0   0   100.32     LegendNANA
05:00 -0.6 -1.8 92 0.0   0   100.33     LegendNANA
06:00 -0.8 -1.8 93 0.0   0   100.36     LegendNANA
07:00 -1.3 -2.3 93 0.0   0   100.40     LegendNANA
08:00 -0.2 -1.4 91 0.0 18 4   100.45   -1 LegendNANA
09:00 0.8 -0.8 89 0.0 17 4   100.51     LegendNANA
10:00 0.8 -0.8 89 0.0 3 1   100.55     LegendNANA
11:00 1.7 -0.5 85 0.0 9 2   100.54     LegendNANA
12:00 2.0 -0.7 83 0.0 0 1   100.47     LegendNANA
13:00 1.9 -0.4 85 0.0 14 4   100.43     LegendNANA
14:00 2.0 -0.6 83 0.0 6 4   100.47     LegendNANA
15:00 1.9 -0.5 84 0.0 3 4   100.52     LegendNANA
16:00 1.8 -0.6 84 0.0 3 5   100.57     LegendNANA
17:00 1.3 -0.8 85 0.0 1 6   100.63     LegendNANA
18:00 1.0 -0.8 88 0.0 3 5   100.70     LegendNANA
19:00 0.8 -0.9 88 0.0 4 4   100.77     LegendNANA
20:00 0.5 -1.1 89 0.0 2 6   100.83     LegendNANA
21:00 0.3 -1.1 91 0.0 2 6   100.91     LegendNANA
22:00 0.3 -0.8 92 0.0 3 7   100.93     LegendNANA
23:00 0.0 -1.0 93 0.0 0 1   100.95   0 LegendNANA

Notes on Data Quality.

Legend

  • E = Estimated
  • M = Missing
  • NA = Not Available*
  • [empty] = Indicates an unobserved value
Date modified: